Time,TemperatureF,DewpointF,PressureIn,WindDirection,WindDirectionDegrees,WindSpeedMPH,WindSpeedGustMPH,Humidity,HourlyPrecipIn,Conditions,Clouds,dailyrainin,SoftwareType,DateUTC
2013-01-27 00:05:00,23.2,13.1,30.41,South,177,9.0,12.0,65,0.00,,,0.00,meteohub,2013-01-27 06:05:00,
2013-01-27 00:10:00,23.2,13.1,30.40,SSE,153,5.0,14.0,65,0.00,,,0.00,meteohub,2013-01-27 06:10:00,
2013-01-27 00:15:00,23.0,13.3,30.40,South,177,11.0,14.0,66,0.00,,,0.00,meteohub,2013-01-27 06:15:00,
2013-01-27 00:20:00,23.0,13.3,30.40,South,187,5.0,14.0,66,0.00,,,0.00,meteohub,2013-01-27 06:20:00,
2013-01-27 00:25:00,23.0,13.3,30.40,SSE,160,7.0,14.0,66,0.00,,,0.00,meteohub,2013-01-27 06:25:00,
2013-01-27 00:30:00,23.0,13.3,30.40,SE,131,8.0,14.0,66,0.00,,,0.00,meteohub,2013-01-27 06:30:00,
2013-01-27 00:35:00,23.0,13.3,30.41,South,177,5.0,12.0,66,0.00,,,0.00,meteohub,2013-01-27 06:35:00,
2013-01-27 00:40:00,23.0,13.6,30.41,SSW,195,5.0,12.0,67,0.00,,,0.00,meteohub,2013-01-27 06:40:00,
2013-01-27 00:45:00,23.2,13.8,30.41,SW,215,4.0,12.0,67,0.00,,,0.00,meteohub,2013-01-27 06:45:00,
2013-01-27 00:50:00,23.2,13.8,30.41,SSW,200,5.0,11.0,67,0.00,,,0.00,meteohub,2013-01-27 06:50:00,
2013-01-27 00:56:00,23.2,13.8,30.41,SE,142,7.0,11.0,67,0.00,,,0.00,meteohub,2013-01-27 06:56:00,
2013-01-27 01:01:00,23.2,13.5,30.41,SSE,168,10.0,11.0,66,0.00,,,0.00,meteohub,2013-01-27 07:01:00,
2013-01-27 01:06:00,23.0,13.6,30.41,SSE,158,6.0,11.0,67,0.00,,,0.00,meteohub,2013-01-27 07:06:00,
2013-01-27 01:13:00,23.0,13.6,30.41,SSW,206,4.0,11.0,67,0.00,,,0.00,meteohub,2013-01-27 07:13:00,
2013-01-27 01:18:00,22.8,13.5,30.40,SW,220,5.0,11.0,67,0.00,,,0.00,meteohub,2013-01-27 07:18:00,
2013-01-27 01:23:00,22.6,13.3,30.40,South,177,6.0,11.0,67,0.00,,,0.00,meteohub,2013-01-27 07:23:00,
2013-01-27 01:28:00,22.6,13.6,30.40,South,177,7.0,11.0,68,0.00,,,0.00,meteohub,2013-01-27 07:28:00,
2013-01-27 01:33:00,22.5,13.5,30.39,SE,138,11.0,12.0,68,0.00,,,0.00,meteohub,2013-01-27 07:33:00,
2013-01-27 01:38:00,22.5,13.5,30.40,SSW,203,6.0,13.0,68,0.00,,,0.00,meteohub,2013-01-27 07:38:00,
2013-01-27 01:43:00,22.5,13.5,30.40,SSE,161,3.0,13.0,68,0.00,,,0.00,meteohub,2013-01-27 07:43:00,
2013-01-27 01:49:00,22.5,13.5,30.40,SSE,163,6.0,13.0,68,0.00,,,0.00,meteohub,2013-01-27 07:49:00,
2013-01-27 01:54:00,22.5,13.5,30.39,SSE,162,7.0,13.0,68,0.00,,,0.00,meteohub,2013-01-27 07:54:00,
2013-01-27 01:59:00,22.5,13.5,30.39,SSE,164,5.0,13.0,68,0.00,,,0.00,meteohub,2013-01-27 07:59:00,
2013-01-27 02:04:00,22.6,13.3,30.39,South,187,11.0,14.0,67,0.00,,,0.00,meteohub,2013-01-27 08:04:00,
2013-01-27 02:09:00,22.5,13.5,30.39,SE,131,10.0,14.0,68,0.00,,,0.00,meteohub,2013-01-27 08:09:00,
2013-01-27 02:14:00,22.6,13.3,30.39,South,187,7.0,14.0,67,0.00,,,0.00,meteohub,2013-01-27 08:14:00,
2013-01-27 02:19:00,22.6,13.3,30.39,SSE,153,6.0,14.0,67,0.00,,,0.00,meteohub,2013-01-27 08:19:00,
2013-01-27 02:24:00,22.6,13.3,30.39,SSE,152,6.0,13.0,67,0.00,,,0.00,meteohub,2013-01-27 08:24:00,
2013-01-27 02:29:00,22.8,13.5,30.39,South,187,4.0,14.0,67,0.00,,,0.00,meteohub,2013-01-27 08:29:00,
2013-01-27 02:34:00,22.8,13.5,30.39,South,169,7.0,14.0,67,0.00,,,0.00,meteohub,2013-01-27 08:34:00,
2013-01-27 02:39:00,23.2,13.8,30.39,SSE,161,4.0,14.0,67,0.00,,,0.00,meteohub,2013-01-27 08:39:00,
2013-01-27 02:45:00,23.2,13.8,30.38,SE,144,7.0,12.0,67,0.00,,,0.00,meteohub,2013-01-27 08:45:00,
2013-01-27 02:50:00,23.5,14.2,30.39,SE,142,7.0,11.0,67,0.00,,,0.00,meteohub,2013-01-27 08:50:00,
2013-01-27 02:55:00,23.4,14.0,30.38,SSW,206,5.0,12.0,67,0.00,,,0.00,meteohub,2013-01-27 08:55:00,
2013-01-27 03:00:00,23.5,14.2,30.38,SSW,192,3.0,12.0,67,0.00,,,0.00,meteohub,2013-01-27 09:00:00,
2013-01-27 03:05:00,23.9,14.2,30.38,SE,142,8.0,12.0,66,0.00,,,0.00,meteohub,2013-01-27 09:05:00,
2013-01-27 03:10:00,24.1,14.4,30.37,SSE,164,6.0,12.0,66,0.00,,,0.00,meteohub,2013-01-27 09:10:00,
2013-01-27 03:15:00,24.3,14.5,30.36,SSE,164,8.0,12.0,66,0.00,,,0.00,meteohub,2013-01-27 09:15:00,
2013-01-27 03:20:00,24.3,14.5,30.35,South,177,4.0,12.0,66,0.00,,,0.00,meteohub,2013-01-27 09:20:00,
2013-01-27 03:25:00,24.3,14.5,30.36,South,187,5.0,11.0,66,0.00,,,0.00,meteohub,2013-01-27 09:25:00,
2013-01-27 03:30:00,24.3,14.5,30.36,South,169,3.0,11.0,66,0.00,,,0.00,meteohub,2013-01-27 09:30:00,
2013-01-27 03:36:00,24.4,14.4,30.36,SSE,165,5.0,12.0,65,0.00,,,0.00,meteohub,2013-01-27 09:36:00,
2013-01-27 03:41:00,24.4,14.4,30.37,South,169,3.0,13.0,65,0.00,,,0.00,meteohub,2013-01-27 09:41:00,
2013-01-27 03:46:00,24.4,14.4,30.37,SSW,199,4.0,13.0,65,0.00,,,0.00,meteohub,2013-01-27 09:46:00,
2013-01-27 03:51:00,24.4,14.7,30.36,South,187,7.0,13.0,66,0.00,,,0.00,meteohub,2013-01-27 09:51:00,
2013-01-27 03:56:00,24.4,14.7,30.36,South,177,6.0,12.0,66,0.00,,,0.00,meteohub,2013-01-27 09:56:00,
2013-01-27 04:01:00,24.6,14.5,30.35,SE,141,6.0,12.0,65,0.00,,,0.00,meteohub,2013-01-27 10:01:00,
2013-01-27 04:06:00,24.6,14.5,30.36,South,170,7.0,12.0,65,0.00,,,0.00,meteohub,2013-01-27 10:06:00,
2013-01-27 04:11:00,24.8,15.1,30.36,SSW,208,4.0,10.0,66,0.00,,,0.00,meteohub,2013-01-27 10:11:00,
2013-01-27 04:16:00,25.0,14.9,30.35,SSE,167,6.0,10.0,65,0.00,,,0.00,meteohub,2013-01-27 10:16:00,
2013-01-27 04:21:00,25.0,15.3,30.35,SE,139,4.0,9.0,66,0.00,,,0.00,meteohub,2013-01-27 10:21:00,
2013-01-27 04:26:00,25.0,15.3,30.35,SSE,166,9.0,9.0,66,0.00,,,0.00,meteohub,2013-01-27 10:26:00,
2013-01-27 04:32:00,25.0,14.9,30.35,SE,146,6.0,12.0,65,0.00,,,0.00,meteohub,2013-01-27 10:32:00,
2013-01-27 04:37:00,25.2,15.4,30.35,SSE,157,3.0,12.0,66,0.00,,,0.00,meteohub,2013-01-27 10:37:00,
2013-01-27 04:42:00,25.2,15.4,30.35,SE,143,5.0,10.0,66,0.00,,,0.00,meteohub,2013-01-27 10:42:00,
2013-01-27 04:47:00,25.2,15.4,30.35,SSE,151,5.0,10.0,66,0.00,,,0.00,meteohub,2013-01-27 10:47:00,
2013-01-27 04:52:00,25.2,15.4,30.35,South,177,10.0,10.0,66,0.00,,,0.00,meteohub,2013-01-27 10:52:00,
2013-01-27 04:57:00,25.2,15.4,30.35,SSE,168,7.0,11.0,66,0.00,,,0.00,meteohub,2013-01-27 10:57:00,
2013-01-27 05:02:00,25.2,15.4,30.35,South,191,4.0,11.0,66,0.00,,,0.00,meteohub,2013-01-27 11:02:00,
2013-01-27 05:07:00,25.3,15.6,30.34,SSE,154,7.0,11.0,66,0.00,,,0.00,meteohub,2013-01-27 11:07:00,
2013-01-27 05:12:00,25.3,15.6,30.34,SSE,147,8.0,10.0,66,0.00,,,0.00,meteohub,2013-01-27 11:12:00,
2013-01-27 05:17:00,25.2,15.8,30.34,SE,138,5.0,11.0,67,0.00,,,0.00,meteohub,2013-01-27 11:17:00,
2013-01-27 05:22:00,25.3,16.0,30.34,SE,141,6.0,11.0,67,0.00,,,0.00,meteohub,2013-01-27 11:22:00,
2013-01-27 05:27:00,25.3,16.0,30.34,South,170,10.0,11.0,67,0.00,,,0.00,meteohub,2013-01-27 11:27:00,
2013-01-27 05:32:00,25.3,16.0,30.34,SSE,162,14.0,14.0,67,0.00,,,0.00,meteohub,2013-01-27 11:32:00,
2013-01-27 05:37:00,25.3,16.3,30.33,SSE,147,9.0,14.0,68,0.00,,,0.00,meteohub,2013-01-27 11:37:00,
2013-01-27 05:42:00,25.3,16.3,30.33,SW,220,5.0,14.0,68,0.00,,,0.00,meteohub,2013-01-27 11:42:00,
2013-01-27 05:47:00,25.3,16.3,30.33,South,172,11.0,14.0,68,0.00,,,0.00,meteohub,2013-01-27 11:47:00,
2013-01-27 05:52:00,25.3,16.5,30.33,SE,134,8.0,14.0,69,0.00,,,0.00,meteohub,2013-01-27 11:52:00,
2013-01-27 05:57:00,25.3,16.3,30.32,SSE,163,8.0,14.0,68,0.00,,,0.00,meteohub,2013-01-27 11:57:00,
2013-01-27 06:02:00,25.5,16.7,30.32,SSE,164,7.0,14.0,69,0.00,,,0.00,meteohub,2013-01-27 12:02:00,
2013-01-27 06:07:00,25.3,16.5,30.32,SSW,211,6.0,12.0,69,0.00,,,0.00,meteohub,2013-01-27 12:07:00,
2013-01-27 06:12:00,25.5,16.7,30.32,SSE,155,6.0,13.0,69,0.00,,,0.00,meteohub,2013-01-27 12:12:00,
2013-01-27 06:17:00,25.3,16.9,30.32,South,191,7.0,14.0,70,0.00,,,0.00,meteohub,2013-01-27 12:17:00,
2013-01-27 06:22:00,25.3,16.9,30.33,ESE,122,5.0,14.0,70,0.00,,,0.00,meteohub,2013-01-27 12:22:00,
2013-01-27 06:27:00,25.3,17.2,30.33,SSW,208,5.0,15.0,71,0.00,,,0.00,meteohub,2013-01-27 12:27:00,
2013-01-27 06:32:00,25.3,17.2,30.33,SSE,155,9.0,16.0,71,0.00,,,0.00,meteohub,2013-01-27 12:32:00,
2013-01-27 06:37:00,25.5,17.4,30.32,South,172,13.0,16.0,71,0.00,,,0.00,meteohub,2013-01-27 12:37:00,
2013-01-27 06:42:00,25.5,17.4,30.33,South,191,6.0,16.0,71,0.00,,,0.00,meteohub,2013-01-27 12:42:00,
2013-01-27 06:47:00,25.5,17.8,30.33,South,172,12.0,14.0,72,0.00,,,0.00,meteohub,2013-01-27 12:47:00,
2013-01-27 06:52:00,25.5,17.8,30.33,SSE,153,8.0,14.0,72,0.00,,,0.00,meteohub,2013-01-27 12:52:00,
2013-01-27 06:57:00,25.5,17.8,30.33,SSE,153,10.0,13.0,72,0.00,,,0.00,meteohub,2013-01-27 12:57:00,
2013-01-27 07:02:00,25.3,17.6,30.33,South,177,12.0,15.0,72,0.00,,,0.00,meteohub,2013-01-27 13:02:00,
2013-01-27 07:07:00,25.3,18.0,30.32,SE,139,8.0,15.0,73,0.00,,,0.00,meteohub,2013-01-27 13:07:00,
2013-01-27 07:12:00,25.5,18.1,30.33,SE,135,5.0,15.0,73,0.00,,,0.00,meteohub,2013-01-27 13:12:00,
2013-01-27 07:17:00,25.5,18.1,30.33,SSW,196,6.0,14.0,73,0.00,,,0.00,meteohub,2013-01-27 13:17:00,
2013-01-27 07:22:00,25.5,18.1,30.33,South,182,5.0,14.0,73,0.00,,,0.00,meteohub,2013-01-27 13:22:00,
2013-01-27 07:27:00,25.5,18.1,30.33,SE,144,12.0,14.0,73,0.00,,,0.00,meteohub,2013-01-27 13:27:00,
2013-01-27 07:32:00,25.5,18.1,30.32,SE,141,11.0,15.0,73,0.00,,,0.00,meteohub,2013-01-27 13:32:00,
2013-01-27 07:37:00,25.5,18.3,30.32,SSE,167,8.0,16.0,74,0.00,,,0.00,meteohub,2013-01-27 13:37:00,
2013-01-27 07:42:00,25.5,18.3,30.32,SSE,168,9.0,16.0,74,0.00,,,0.00,meteohub,2013-01-27 13:42:00,
2013-01-27 07:47:00,25.5,18.3,30.32,South,187,7.0,16.0,74,0.00,,,0.00,meteohub,2013-01-27 13:47:00,
2013-01-27 07:52:00,25.5,18.3,30.33,SSE,166,10.0,13.0,74,0.00,,,0.00,meteohub,2013-01-27 13:52:00,
2013-01-27 07:57:00,25.7,18.5,30.33,SSE,153,10.0,14.0,74,0.00,,,0.00,meteohub,2013-01-27 13:57:00,
2013-01-27 08:02:00,25.9,18.7,30.33,South,170,9.0,14.0,74,0.00,,,0.00,meteohub,2013-01-27 14:02:00,
2013-01-27 08:07:00,25.9,18.7,30.34,SE,133,9.0,14.0,74,0.00,,,0.00,meteohub,2013-01-27 14:07:00,
2013-01-27 08:12:00,25.9,18.7,30.34,South,182,8.0,14.0,74,0.00,,,0.00,meteohub,2013-01-27 14:12:00,
2013-01-27 08:17:00,25.9,18.7,30.34,South,172,10.0,15.0,74,0.00,,,0.00,meteohub,2013-01-27 14:17:00,
2013-01-27 08:22:00,25.9,18.7,30.34,SW,230,8.0,15.0,74,0.00,,,0.00,meteohub,2013-01-27 14:22:00,
2013-01-27 08:27:00,26.1,18.9,30.34,SSE,160,11.0,16.0,74,0.00,,,0.00,meteohub,2013-01-27 14:27:00,
2013-01-27 08:32:00,26.1,18.9,30.34,South,187,7.0,16.0,74,0.00,,,0.00,meteohub,2013-01-27 14:32:00,
2013-01-27 08:37:00,26.2,19.0,30.34,SSE,164,15.0,16.0,74,0.00,,,0.00,meteohub,2013-01-27 14:37:00,
2013-01-27 08:42:00,26.4,19.2,30.34,SE,145,9.0,15.0,74,0.00,,,0.00,meteohub,2013-01-27 14:42:00,
2013-01-27 08:47:00,26.4,19.2,30.33,SSE,147,11.0,15.0,74,0.00,,,0.00,meteohub,2013-01-27 14:47:00,
2013-01-27 08:52:00,26.6,19.0,30.33,South,187,7.0,18.0,73,0.00,,,0.00,meteohub,2013-01-27 14:52:00,
2013-01-27 08:57:00,26.6,19.4,30.33,SSW,200,6.0,18.0,74,0.00,,,0.00,meteohub,2013-01-27 14:57:00,
2013-01-27 09:02:00,26.8,19.2,30.33,SSW,195,8.0,17.0,73,0.00,,,0.00,meteohub,2013-01-27 15:02:00,
2013-01-27 09:07:00,27.0,19.4,30.33,SSE,167,13.0,17.0,73,0.00,,,0.00,meteohub,2013-01-27 15:07:00,
2013-01-27 09:12:00,27.0,19.4,30.33,SE,141,10.0,16.0,73,0.00,,,0.00,meteohub,2013-01-27 15:12:00,
2013-01-27 09:17:00,27.0,19.4,30.32,South,170,10.0,16.0,73,0.00,,,0.00,meteohub,2013-01-27 15:17:00,
2013-01-27 09:22:00,27.1,19.6,30.32,South,177,7.0,16.0,73,0.00,,,0.00,meteohub,2013-01-27 15:22:00,
2013-01-27 09:27:00,27.1,19.6,30.32,SE,143,16.0,16.0,73,0.00,,,0.00,meteohub,2013-01-27 15:27:00,
2013-01-27 09:32:00,27.3,19.8,30.32,South,170,8.0,17.0,73,0.00,,,0.00,meteohub,2013-01-27 15:32:00,
2013-01-27 09:37:00,27.3,19.8,30.31,South,177,9.0,17.0,73,0.00,,,0.00,meteohub,2013-01-27 15:37:00,
2013-01-27 09:42:00,27.3,19.8,30.32,SSE,166,10.0,17.0,73,0.00,,,0.00,meteohub,2013-01-27 15:42:00,
2013-01-27 09:47:00,27.7,20.1,30.31,SSE,166,12.0,17.0,73,0.00,,,0.00,meteohub,2013-01-27 15:47:00,
2013-01-27 09:52:00,27.9,20.3,30.31,SSE,151,10.0,17.0,73,0.00,,,0.00,meteohub,2013-01-27 15:52:00,
2013-01-27 09:57:00,27.9,19.9,30.30,SSE,161,10.0,17.0,72,0.00,,,0.00,meteohub,2013-01-27 15:57:00,
2013-01-27 10:02:00,27.9,20.3,30.31,SSE,165,11.0,18.0,73,0.00,,,0.00,meteohub,2013-01-27 16:02:00,
2013-01-27 10:07:00,28.0,20.1,30.31,SSE,162,12.0,18.0,72,0.00,,,0.00,meteohub,2013-01-27 16:07:00,
2013-01-27 10:12:00,28.0,20.1,30.31,South,170,8.0,17.0,72,0.00,,,0.00,meteohub,2013-01-27 16:12:00,
2013-01-27 10:17:00,28.2,20.3,30.32,SSE,153,12.0,17.0,72,0.00,,,0.00,meteohub,2013-01-27 16:17:00,
2013-01-27 10:22:00,28.4,20.5,30.31,SSE,160,7.0,17.0,72,0.00,,,0.00,meteohub,2013-01-27 16:22:00,
2013-01-27 10:27:00,28.6,20.7,30.30,SSW,201,9.0,15.0,72,0.00,,,0.00,meteohub,2013-01-27 16:27:00,
2013-01-27 10:32:00,28.8,20.5,30.30,SSW,202,4.0,15.0,71,0.00,,,0.00,meteohub,2013-01-27 16:32:00,
2013-01-27 10:37:00,28.6,20.7,30.30,SSE,168,7.0,16.0,72,0.00,,,0.00,meteohub,2013-01-27 16:37:00,
2013-01-27 10:42:00,28.6,20.7,30.30,SSE,153,6.0,16.0,72,0.00,,,0.00,meteohub,2013-01-27 16:42:00,
2013-01-27 10:47:00,28.8,20.8,30.29,SSE,152,7.0,16.0,72,0.00,,,0.00,meteohub,2013-01-27 16:47:00,
2013-01-27 10:52:00,28.6,21.0,30.29,SSE,166,5.0,15.0,73,0.00,,,0.00,meteohub,2013-01-27 16:52:00,
2013-01-27 10:57:00,28.6,21.0,30.28,SSE,164,6.0,15.0,73,0.00,,,0.00,meteohub,2013-01-27 16:57:00,
2013-01-27 11:02:00,28.6,21.0,30.28,SSE,162,7.0,15.0,73,0.00,,,0.00,meteohub,2013-01-27 17:02:00,
2013-01-27 11:07:00,28.8,20.8,30.28,SSE,162,6.0,13.0,72,0.00,,,0.00,meteohub,2013-01-27 17:07:00,
2013-01-27 11:12:00,28.9,21.0,30.27,SE,135,4.0,15.0,72,0.00,,,0.00,meteohub,2013-01-27 17:12:00,
2013-01-27 11:17:00,29.1,20.8,30.27,SSE,150,11.0,15.0,71,0.00,,,0.00,meteohub,2013-01-27 17:17:00,
2013-01-27 11:22:00,29.1,21.2,30.27,SE,126,11.0,19.0,72,0.00,,,0.00,meteohub,2013-01-27 17:22:00,
2013-01-27 11:27:00,29.1,21.2,30.26,SE,131,12.0,19.0,72,0.00,,,0.00,meteohub,2013-01-27 17:27:00,
2013-01-27 11:32:00,28.9,21.0,30.25,SSW,210,9.0,16.0,72,0.00,,,0.00,meteohub,2013-01-27 17:32:00,
2013-01-27 11:37:00,28.9,21.4,30.25,South,172,14.0,19.0,73,0.00,,,0.00,meteohub,2013-01-27 17:37:00,
2013-01-27 11:42:00,28.9,21.4,30.25,SSE,168,9.0,19.0,73,0.00,,,0.00,meteohub,2013-01-27 17:42:00,
2013-01-27 11:47:00,29.1,21.6,30.24,South,170,10.0,18.0,73,0.00,,,0.00,meteohub,2013-01-27 17:47:00,
2013-01-27 11:52:00,29.3,21.7,30.23,SSE,162,13.0,18.0,73,0.00,,,0.00,meteohub,2013-01-27 17:52:00,
2013-01-27 11:57:00,29.5,21.9,30.22,SSE,151,6.0,16.0,73,0.00,,,0.00,meteohub,2013-01-27 17:57:00,
2013-01-27 12:02:00,29.5,22.3,30.22,SE,145,10.0,16.0,74,0.00,,,0.00,meteohub,2013-01-27 18:02:00,
2013-01-27 12:07:00,29.3,22.1,30.22,SSW,195,15.0,17.0,74,0.00,,,0.00,meteohub,2013-01-27 18:07:00,
2013-01-27 12:12:00,29.1,22.3,30.21,SSE,161,8.0,18.0,75,0.00,,,0.00,meteohub,2013-01-27 18:12:00,
2013-01-27 12:17:00,29.5,22.3,30.21,SSE,164,11.0,18.0,74,0.00,,,0.00,meteohub,2013-01-27 18:17:00,
2013-01-27 12:22:00,29.3,22.3,30.21,SSE,160,6.0,18.0,75,0.00,,,0.00,meteohub,2013-01-27 18:22:00,
2013-01-27 12:27:00,29.1,22.3,30.21,SSE,149,11.0,19.0,75,0.00,,,0.00,meteohub,2013-01-27 18:27:00,
2013-01-27 12:32:00,29.1,22.3,30.21,SE,134,8.0,19.0,75,0.00,,,0.00,meteohub,2013-01-27 18:32:00,
2013-01-27 12:37:00,29.3,22.6,30.21,SW,215,6.0,19.0,76,0.00,,,0.00,meteohub,2013-01-27 18:37:00,
2013-01-27 12:42:00,29.3,22.6,30.21,SE,133,12.0,16.0,76,0.00,,,0.00,meteohub,2013-01-27 18:42:00,
2013-01-27 12:47:00,29.5,22.8,30.21,SE,143,8.0,19.0,76,0.00,,,0.00,meteohub,2013-01-27 18:47:00,
2013-01-27 12:52:00,29.5,23.2,30.20,South,182,4.0,19.0,77,0.00,,,0.00,meteohub,2013-01-27 18:52:00,
2013-01-27 12:57:00,29.1,23.7,30.19,SE,137,6.0,19.0,80,0.00,,,0.00,meteohub,2013-01-27 18:57:00,
2013-01-27 13:02:00,28.8,24.6,30.19,South,172,8.0,16.0,84,0.00,,,0.00,meteohub,2013-01-27 19:02:00,
2013-01-27 13:07:00,28.2,24.8,30.20,South,187,6.0,18.0,87,0.00,,,0.00,meteohub,2013-01-27 19:07:00,
2013-01-27 13:12:00,28.0,25.0,30.19,SSW,197,8.0,18.0,88,0.00,,,0.00,meteohub,2013-01-27 19:12:00,
2013-01-27 13:17:00,28.0,25.0,30.18,SSE,162,5.0,18.0,88,0.00,,,0.00,meteohub,2013-01-27 19:17:00,
2013-01-27 13:22:00,28.0,25.2,30.18,SSE,155,4.0,15.0,89,0.00,,,0.00,meteohub,2013-01-27 19:22:00,
2013-01-27 13:27:00,28.0,25.2,30.17,South,171,6.0,15.0,89,0.00,,,0.00,meteohub,2013-01-27 19:27:00,
2013-01-27 13:33:00,27.9,25.0,30.16,South,177,3.0,14.0,89,0.00,,,0.00,meteohub,2013-01-27 19:33:00,
2013-01-27 13:38:00,27.9,25.0,30.17,South,177,12.0,15.0,89,0.00,,,0.00,meteohub,2013-01-27 19:38:00,
2013-01-27 13:43:00,27.9,25.3,30.15,SSE,151,10.0,15.0,90,0.00,,,0.00,meteohub,2013-01-27 19:43:00,
2013-01-27 13:48:00,27.9,25.3,30.15,SSE,166,5.0,16.0,90,0.00,,,0.00,meteohub,2013-01-27 19:48:00,
2013-01-27 13:53:00,27.9,25.3,30.15,South,170,10.0,16.0,90,0.00,,,0.00,meteohub,2013-01-27 19:53:00,
2013-01-27 13:58:00,27.9,25.5,30.15,South,177,9.0,15.0,91,0.00,,,0.00,meteohub,2013-01-27 19:58:00,
2013-01-27 14:03:00,28.0,25.7,30.14,ESE,116,10.0,16.0,91,0.00,,,0.00,meteohub,2013-01-27 20:03:00,
2013-01-27 14:08:00,28.2,25.9,30.14,SSW,203,11.0,19.0,91,0.00,,,0.00,meteohub,2013-01-27 20:08:00,
2013-01-27 14:13:00,28.4,26.1,30.13,SE,143,16.0,19.0,91,0.00,,,0.00,meteohub,2013-01-27 20:13:00,
2013-01-27 14:18:00,28.6,26.1,30.13,SSE,151,9.0,19.0,90,0.00,,,0.00,meteohub,2013-01-27 20:18:00,
2013-01-27 14:24:00,28.8,26.2,30.14,SSE,147,13.0,19.0,90,0.00,,,0.00,meteohub,2013-01-27 20:24:00,
2013-01-27 14:29:00,28.8,26.2,30.13,SSE,168,8.0,19.0,90,0.00,,,0.00,meteohub,2013-01-27 20:29:00,
2013-01-27 14:34:00,29.1,26.2,30.14,SE,137,11.0,22.0,89,0.00,,,0.00,meteohub,2013-01-27 20:34:00,
2013-01-27 14:39:00,29.1,26.2,30.14,SSE,149,6.0,22.0,89,0.00,,,0.00,meteohub,2013-01-27 20:39:00,
2013-01-27 14:44:00,29.3,26.4,30.14,SSE,166,6.0,22.0,89,0.00,,,0.00,meteohub,2013-01-27 20:44:00,
2013-01-27 14:49:00,29.7,26.8,30.13,South,170,8.0,17.0,89,0.00,,,0.00,meteohub,2013-01-27 20:49:00,
2013-01-27 14:54:00,29.7,26.6,30.12,SSW,195,9.0,17.0,88,0.00,,,0.00,meteohub,2013-01-27 20:54:00,
2013-01-27 14:59:00,29.8,26.2,30.12,SSE,151,8.0,17.0,86,0.00,,,0.00,meteohub,2013-01-27 20:59:00,
2013-01-27 15:04:00,29.8,26.2,30.12,SE,126,10.0,18.0,86,0.00,,,0.00,meteohub,2013-01-27 21:04:00,
2013-01-27 15:09:00,30.2,26.6,30.11,SE,146,7.0,18.0,86,0.00,,,0.00,meteohub,2013-01-27 21:09:00,
2013-01-27 15:14:00,30.0,26.6,30.09,SE,141,8.0,18.0,87,0.00,,,0.00,meteohub,2013-01-27 21:14:00,
2013-01-27 15:20:00,30.2,26.8,30.09,SE,143,9.0,17.0,87,0.00,,,0.00,meteohub,2013-01-27 21:20:00,
2013-01-27 15:25:00,30.4,27.0,30.08,SE,134,7.0,19.0,87,0.00,,,0.00,meteohub,2013-01-27 21:25:00,
2013-01-27 15:30:00,30.4,26.8,30.08,SE,134,4.0,19.0,86,0.00,,,0.00,meteohub,2013-01-27 21:30:00,
2013-01-27 15:35:00,30.4,26.4,30.08,SSE,162,11.0,18.0,85,0.00,,,0.00,meteohub,2013-01-27 21:35:00,
2013-01-27 15:40:00,30.6,26.6,30.07,South,177,7.0,20.0,85,0.00,,,0.00,meteohub,2013-01-27 21:40:00,
2013-01-27 15:45:00,30.6,26.2,30.07,SE,143,13.0,20.0,84,0.00,,,0.00,meteohub,2013-01-27 21:45:00,
2013-01-27 15:50:00,30.6,26.2,30.07,South,182,10.0,21.0,84,0.00,,,0.00,meteohub,2013-01-27 21:50:00,
2013-01-27 15:55:00,30.6,26.2,30.07,SSE,158,12.0,21.0,84,0.00,,,0.00,meteohub,2013-01-27 21:55:00,
2013-01-27 16:00:00,30.6,26.2,30.07,SE,135,14.0,21.0,84,0.00,,,0.00,meteohub,2013-01-27 22:00:00,
2013-01-27 16:06:00,30.6,26.2,30.06,ESE,118,7.0,21.0,84,0.00,,,0.00,meteohub,2013-01-27 22:06:00,
2013-01-27 16:11:00,30.4,26.4,30.06,SE,146,6.0,19.0,85,0.00,,,0.00,meteohub,2013-01-27 22:11:00,
2013-01-27 16:16:00,30.4,27.0,30.06,SE,140,11.0,21.0,87,0.00,,,0.00,meteohub,2013-01-27 22:16:00,
2013-01-27 16:21:00,30.2,27.3,30.06,SSE,161,10.0,21.0,89,0.00,,,0.00,meteohub,2013-01-27 22:21:00,
2013-01-27 16:26:00,30.0,27.5,30.04,SE,145,14.0,22.0,90,0.00,,,0.00,meteohub,2013-01-27 22:26:00,
2013-01-27 16:31:00,30.0,27.7,30.05,SSE,149,14.0,22.0,91,0.00,,,0.00,meteohub,2013-01-27 22:31:00,
2013-01-27 16:36:00,30.0,27.7,30.04,SE,139,10.0,22.0,91,0.00,,,0.00,meteohub,2013-01-27 22:36:00,
2013-01-27 16:41:00,30.0,28.0,30.04,South,172,9.0,18.0,92,0.00,,,0.00,meteohub,2013-01-27 22:41:00,
2013-01-27 16:46:00,30.0,28.0,30.04,SSE,166,12.0,19.0,92,0.00,,,0.00,meteohub,2013-01-27 22:46:00,
2013-01-27 16:52:00,30.0,28.2,30.04,SSE,160,7.0,19.0,93,0.00,,,0.00,meteohub,2013-01-27 22:52:00,
2013-01-27 16:57:00,30.0,28.2,30.04,SSE,150,7.0,19.0,93,0.00,,,0.00,meteohub,2013-01-27 22:57:00,
2013-01-27 17:02:00,30.2,28.4,30.04,South,177,10.0,17.0,93,0.00,,,0.00,meteohub,2013-01-27 23:02:00,
2013-01-27 17:07:00,30.2,28.4,30.04,SSW,198,9.0,16.0,93,0.00,,,0.00,meteohub,2013-01-27 23:07:00,
2013-01-27 17:12:00,30.4,28.6,30.04,SSE,161,12.0,18.0,93,0.00,,,0.00,meteohub,2013-01-27 23:12:00,
2013-01-27 17:17:00,30.4,28.6,30.04,SSW,195,8.0,18.0,93,0.00,,,0.00,meteohub,2013-01-27 23:17:00,
2013-01-27 17:22:00,30.4,28.6,30.04,SE,141,13.0,18.0,93,0.00,,,0.00,meteohub,2013-01-27 23:22:00,
2013-01-27 17:27:00,30.6,28.8,30.04,SE,146,11.0,16.0,93,0.00,,,0.00,meteohub,2013-01-27 23:27:00,
2013-01-27 17:32:00,30.6,28.8,30.03,SE,140,8.0,16.0,93,0.00,,,0.00,meteohub,2013-01-27 23:32:00,
2013-01-27 17:37:00,30.6,28.8,30.03,SE,132,4.0,17.0,93,0.00,,,0.00,meteohub,2013-01-27 23:37:00,
2013-01-27 17:42:00,30.6,28.8,30.03,SSW,196,7.0,17.0,93,0.00,,,0.00,meteohub,2013-01-27 23:42:00,
2013-01-27 17:47:00,30.6,29.1,30.02,SSE,168,11.0,17.0,94,0.00,,,0.00,meteohub,2013-01-27 23:47:00,
2013-01-27 17:52:00,30.7,29.3,30.02,SE,143,8.0,14.0,94,0.00,,,0.00,meteohub,2013-01-27 23:52:00,
2013-01-27 17:57:00,30.7,29.3,30.02,SSE,153,9.0,14.0,94,0.00,,,0.00,meteohub,2013-01-27 23:57:00,
2013-01-27 18:02:00,30.7,29.3,30.02,SSE,165,9.0,14.0,94,0.00,,,0.00,meteohub,2013-01-28 00:02:00,
2013-01-27 18:07:00,30.7,29.3,30.02,SE,140,10.0,14.0,94,0.00,,,0.00,meteohub,2013-01-28 00:07:00,
2013-01-27 18:12:00,30.7,29.3,30.02,SE,145,7.0,14.0,94,0.00,,,0.00,meteohub,2013-01-28 00:12:00,
2013-01-27 18:17:00,30.7,29.3,30.01,SE,146,5.0,14.0,94,0.00,,,0.00,meteohub,2013-01-28 00:17:00,
2013-01-27 18:22:00,30.7,29.3,30.01,South,170,3.0,12.0,94,0.00,,,0.00,meteohub,2013-01-28 00:22:00,
2013-01-27 18:27:00,30.7,29.3,30.02,ESE,122,10.0,14.0,94,0.00,,,0.00,meteohub,2013-01-28 00:27:00,
2013-01-27 18:32:00,30.7,29.3,30.01,SSE,164,7.0,15.0,94,0.00,,,0.00,meteohub,2013-01-28 00:32:00,
2013-01-27 18:37:00,30.7,29.3,30.01,SE,140,11.0,15.0,94,0.00,,,0.00,meteohub,2013-01-28 00:37:00,
2013-01-27 18:42:00,30.9,29.5,30.01,SE,131,10.0,15.0,94,0.00,,,0.00,meteohub,2013-01-28 00:42:00,
2013-01-27 18:47:00,30.7,29.3,30.01,SSW,193,9.0,13.0,94,0.00,,,0.00,meteohub,2013-01-28 00:47:00,
2013-01-27 18:52:00,30.7,29.3,30.01,SE,135,9.0,13.0,94,0.00,,,0.00,meteohub,2013-01-28 00:52:00,
2013-01-27 18:57:00,30.9,29.5,30.01,SSE,158,8.0,13.0,94,0.00,,,0.00,meteohub,2013-01-28 00:57:00,
2013-01-27 19:02:00,30.9,29.5,30.00,SSW,206,10.0,13.0,94,0.00,,,0.00,meteohub,2013-01-28 01:02:00,
2013-01-27 19:07:00,30.9,29.5,30.00,SE,137,8.0,13.0,94,0.00,,,0.00,meteohub,2013-01-28 01:07:00,
2013-01-27 19:12:00,31.3,29.8,30.00,SSE,168,5.0,11.0,94,0.00,,,0.00,meteohub,2013-01-28 01:12:00,
2013-01-27 19:17:00,31.1,29.7,30.00,South,169,6.0,11.0,94,0.00,,,0.00,meteohub,2013-01-28 01:17:00,
2013-01-27 19:22:00,31.3,29.8,30.00,South,177,7.0,11.0,94,0.00,,,0.00,meteohub,2013-01-28 01:22:00,
2013-01-27 19:27:00,31.3,29.8,29.99,South,172,5.0,10.0,94,0.00,,,0.00,meteohub,2013-01-28 01:27:00,
2013-01-27 19:32:00,31.5,30.2,29.99,SSE,168,8.0,11.0,95,0.00,,,0.00,meteohub,2013-01-28 01:32:00,
2013-01-27 19:37:00,31.6,30.4,29.99,South,177,5.0,12.0,95,0.00,,,0.00,meteohub,2013-01-28 01:37:00,
2013-01-27 19:42:00,31.6,30.4,29.99,South,182,4.0,12.0,95,0.00,,,0.00,meteohub,2013-01-28 01:42:00,
2013-01-27 19:47:00,31.8,30.6,29.99,South,182,4.0,12.0,95,0.00,,,0.00,meteohub,2013-01-28 01:47:00,
2013-01-27 19:52:00,31.8,30.6,29.99,SE,145,6.0,13.0,95,0.00,,,0.00,meteohub,2013-01-28 01:52:00,
2013-01-27 19:57:00,32.0,30.7,29.99,South,170,5.0,13.0,95,0.00,,,0.00,meteohub,2013-01-28 01:57:00,
2013-01-27 20:02:00,32.0,30.7,29.98,SSE,166,7.0,13.0,95,0.00,,,0.00,meteohub,2013-01-28 02:02:00,
2013-01-27 20:07:00,32.2,30.9,29.98,SSE,168,5.0,10.0,95,0.00,,,0.00,meteohub,2013-01-28 02:07:00,
2013-01-27 20:12:00,32.4,31.1,29.98,SSE,168,6.0,10.0,95,0.00,,,0.00,meteohub,2013-01-28 02:12:00,
2013-01-27 20:17:00,32.4,31.1,29.98,South,169,4.0,11.0,95,0.00,,,0.00,meteohub,2013-01-28 02:17:00,
2013-01-27 20:22:00,32.4,31.1,29.97,SSE,162,8.0,11.0,95,0.00,,,0.00,meteohub,2013-01-28 02:22:00,
2013-01-27 20:27:00,32.4,31.1,29.97,SE,139,4.0,11.0,95,0.00,,,0.00,meteohub,2013-01-28 02:27:00,
2013-01-27 20:32:00,32.5,31.3,29.97,SSE,147,6.0,11.0,95,0.00,,,0.00,meteohub,2013-01-28 02:32:00,
2013-01-27 20:37:00,32.5,31.3,29.97,SE,145,5.0,11.0,95,0.00,,,0.00,meteohub,2013-01-28 02:37:00,
2013-01-27 20:42:00,32.5,31.3,29.97,SSE,156,4.0,11.0,95,0.00,,,0.00,meteohub,2013-01-28 02:42:00,
2013-01-27 20:47:00,32.5,31.3,29.97,SE,146,7.0,9.0,95,0.00,,,0.00,meteohub,2013-01-28 02:47:00,
2013-01-27 20:52:00,32.5,31.3,29.96,SSE,149,5.0,9.0,95,0.00,,,0.00,meteohub,2013-01-28 02:52:00,
2013-01-27 20:57:00,32.7,31.5,29.96,South,170,4.0,10.0,95,0.00,,,0.00,meteohub,2013-01-28 02:57:00,
2013-01-27 21:02:00,32.7,31.5,29.96,SE,136,3.0,10.0,95,0.00,,,0.00,meteohub,2013-01-28 03:02:00,
2013-01-27 21:07:00,32.7,31.5,29.96,South,177,5.0,10.0,95,0.00,,,0.00,meteohub,2013-01-28 03:07:00,
2013-01-27 21:12:00,32.7,31.5,29.96,SSE,162,4.0,9.0,95,0.00,,,0.00,meteohub,2013-01-28 03:12:00,
2013-01-27 21:17:00,32.7,31.5,29.96,SSE,162,4.0,8.0,95,0.00,,,0.00,meteohub,2013-01-28 03:17:00,
2013-01-27 21:22:00,32.7,31.5,29.96,SSE,158,6.0,8.0,95,0.00,,,0.00,meteohub,2013-01-28 03:22:00,
2013-01-27 21:27:00,32.7,31.5,29.95,SSE,148,6.0,9.0,95,0.00,,,0.00,meteohub,2013-01-28 03:27:00,
2013-01-27 21:32:00,32.9,31.6,29.95,South,177,4.0,10.0,95,0.00,,,0.00,meteohub,2013-01-28 03:32:00,
2013-01-27 21:37:00,32.7,31.5,29.95,SSE,155,3.0,10.0,95,0.00,,,0.00,meteohub,2013-01-28 03:37:00,
2013-01-27 21:42:00,32.7,31.5,29.95,SE,131,5.0,10.0,95,0.00,,,0.00,meteohub,2013-01-28 03:42:00,
2013-01-27 21:47:00,32.9,31.6,29.94,SE,145,6.0,9.0,95,0.00,,,0.00,meteohub,2013-01-28 03:47:00,
2013-01-27 21:52:00,32.9,31.6,29.94,South,177,3.0,10.0,95,0.00,,,0.00,meteohub,2013-01-28 03:52:00,
2013-01-27 21:57:00,32.9,31.6,29.94,SE,135,7.0,10.0,95,0.00,,,0.00,meteohub,2013-01-28 03:57:00,
2013-01-27 22:02:00,32.9,31.6,29.94,South,172,5.0,10.0,95,0.00,,,0.00,meteohub,2013-01-28 04:02:00,
2013-01-27 22:07:00,33.1,31.8,29.94,SSE,159,7.0,9.0,95,0.00,,,0.00,meteohub,2013-01-28 04:07:00,
2013-01-27 22:12:00,33.1,31.8,29.94,SSE,148,7.0,9.0,95,0.00,,,0.00,meteohub,2013-01-28 04:12:00,
2013-01-27 22:17:00,33.1,31.8,29.94,South,187,4.0,8.0,95,0.00,,,0.00,meteohub,2013-01-28 04:17:00,
2013-01-27 22:22:00,33.1,31.8,29.93,South,177,9.0,9.0,95,0.00,,,0.00,meteohub,2013-01-28 04:22:00,
2013-01-27 22:27:00,33.1,31.8,29.93,South,182,4.0,10.0,95,0.00,,,0.00,meteohub,2013-01-28 04:27:00,
2013-01-27 22:32:00,33.1,32.0,29.93,South,177,5.0,10.0,96,0.00,,,0.00,meteohub,2013-01-28 04:32:00,
2013-01-27 22:37:00,33.3,32.2,29.93,SSE,149,5.0,10.0,96,0.00,,,0.00,meteohub,2013-01-28 04:37:00,
2013-01-27 22:42:00,33.3,32.2,29.93,SSE,168,5.0,8.0,96,0.01,,,0.01,meteohub,2013-01-28 04:42:00,
2013-01-27 22:47:00,33.3,32.2,29.93,SSE,156,4.0,7.0,96,0.01,,,0.01,meteohub,2013-01-28 04:47:00,
2013-01-27 22:52:00,33.3,32.2,29.93,SE,132,5.0,7.0,96,0.01,,,0.01,meteohub,2013-01-28 04:52:00,
2013-01-27 22:57:00,33.3,32.0,29.93,SSE,165,4.0,7.0,95,0.01,,,0.01,meteohub,2013-01-28 04:57:00,
2013-01-27 23:02:00,33.3,32.0,29.92,SSE,153,4.0,7.0,95,0.01,,,0.01,meteohub,2013-01-28 05:02:00,
2013-01-27 23:04:00,33.3,32.0,29.92,SSE,147,4.0,7.0,95,0.01,,,0.01,meteohub,2013-01-28 05:04:00,
2013-01-27 23:05:00,33.3,32.2,29.93,SSW,203,5.0,7.0,96,0.01,,,0.01,meteohub,2013-01-28 05:05:00,
2013-01-27 23:10:00,33.3,32.2,29.92,SSE,166,5.0,7.0,96,0.01,,,0.02,meteohub,2013-01-28 05:10:00,
2013-01-27 23:11:00,33.3,32.2,29.92,South,182,4.0,7.0,96,0.02,,,0.02,meteohub,2013-01-28 05:11:00,
2013-01-27 23:16:00,33.3,32.2,29.92,SSE,160,3.0,7.0,96,0.02,,,0.02,meteohub,2013-01-28 05:16:00,
2013-01-27 23:21:00,33.4,32.4,29.92,SSE,168,5.0,7.0,96,0.02,,,0.02,meteohub,2013-01-28 05:21:00,
2013-01-27 23:26:00,33.4,32.4,29.92,South,177,2.0,8.0,96,0.03,,,0.03,meteohub,2013-01-28 05:26:00,
2013-01-27 23:31:00,33.4,32.4,29.91,SE,145,5.0,8.0,96,0.03,,,0.03,meteohub,2013-01-28 05:31:00,
2013-01-27 23:36:00,33.4,32.4,29.91,South,173,5.0,8.0,96,0.03,,,0.03,meteohub,2013-01-28 05:36:00,
2013-01-27 23:41:00,33.4,32.4,29.91,South,187,5.0,8.0,96,0.03,,,0.04,meteohub,2013-01-28 05:41:00,
2013-01-27 23:46:00,33.4,32.4,29.91,SSE,148,6.0,8.0,96,0.03,,,0.04,meteohub,2013-01-28 05:46:00,
2013-01-27 23:52:00,33.4,32.4,29.91,SE,143,5.0,8.0,96,0.03,,,0.04,meteohub,2013-01-28 05:52:00,
2013-01-27 23:57:00,33.4,32.4,29.91,SE,144,5.0,7.0,96,0.03,,,0.04,meteohub,2013-01-28 05:57:00,